Location: Newark
(58.9986°N, 38.5006°E)
Time: 09:11:09
(UTC+00:00)

Explorer 7 - Pass Details

Date: 19 April 2021
Orbit: 484 x 677 km, 50.3° (Epoch: 11 May)

Event Time Altitude Azimuth Distance (km) Brightness Sun altitude
Rises 18:55:54 0° 226° (SW) 2,697 10.3 -13.4°
Reaches altitude 10° 18:58:28 10° 209° (SSW) 1,843 9.3 -13.6°
Enters shadow 19:01:17 21° 168° (SSE) 1,335 8.2 -13.8°
